QPF
0.00 0.00 0.00 0.00 0.00 0.00 0.00 0.00 0.00 0.01 0.01 0.01 0.00 0.00 0.00 0.01 0.01 0.01 0.01 0.02 0.01 0.01 0.01 0.01 0.01 0.01 0.01 0.01 0.01 0.01 0.01 0.00 0.00 0.00 0.00 0.00 0.01 0.01 0.01 0.02 0.02 0.01 0.02
0.00 0.00 0.00 0.00 0.00 0.00 0.00 0.00 0.01 0.01 0.01 0.01 0.01 0.01 0.01 0.01 0.01 0.01 0.01 0.01 0.02 0.02 0.01 0.01 0.01 0.01 0.01 0.01 0.01 0.00 0.00 0.00 0.00 0.00 0.00 0.00 0.00 0.01 0.01 0.01 0.01 0.01 0.01
0.00 0.00 0.00 0.00 0.00 0.00 0.00 0.01 0.01 0.01 0.01 0.02 0.02 0.01 0.01 0.02 0.02 0.01 0.02 0.02 0.02 0.01 0.01 0.01 0.01 0.01 0.01 0.01 0.00 0.00 0.00 0.00 0.00 0.00 0.00 0.00 0.00 0.00 0.00 0.00 0.00 0.00 0.01
0.00 0.00 0.00 0.00 0.00 0.00 0.01 0.01 0.01 0.01 0.01 0.03 0.03 0.02 0.02 0.02 0.02 0.02 0.03 0.03 0.02 0.01 0.01 0.01 0.00 0.00 0.00 0.00 0.00 0.00 0.00 0.00 0.00 0.01 0.01 0.00 0.00 0.01 0.01 0.01 0.01 0.01 0.01
0.01 0.00 0.01 0.01 0.01 0.00 0.01 0.01 0.01 0.01 0.02 0.03 0.02 0.02 0.02 0.02 0.02 0.03 0.04 0.02 0.01 0.01 0.00 0.00 0.00 0.00 0.00 0.00 0.00 0.00 0.00 0.00 0.00 0.01 0.01 0.00 0.00 0.01 0.01 0.00 0.00 0.00 0.00
0.02 0.01 0.01 0.01 0.01 0.01 0.01 0.01 0.01 0.02 0.02 0.03 0.02 0.02 0.03 0.03 0.03 0.03 0.04 0.01 0.00 0.00 0.00 0.00 0.00 0.00 0.00 0.00 0.00 0.00 0.00 0.00 0.00 0.00 0.00 0.00 0.00 0.00 0.00 0.00 0.00 0.00 0.00
0.03 0.03 0.01 0.01 0.01 0.01 0.01 0.01 0.01 0.02 0.03 0.03 0.02 0.02 0.03 0.04 0.05 0.03 0.03 0.01 0.00 0.00 0.00 0.00 0.00 0.00 0.00 0.00 0.00 0.00 0.00 0.00 0.00 0.01 0.00 0.00 0.00 0.00 0.00 0.00 0.00 0.00 0.00
0.06 0.06 0.03 0.01 0.01 0.01 0.02 0.02 0.02 0.03 0.04 0.03 0.02 0.03 0.04 0.05 0.05 0.03 0.01 0.01 0.00 0.00 0.00 0.00 0.00 0.00 0.00 0.00 0.00 0.00 0.00 0.00 0.00 0.00 0.00 0.00 0.00 0.00 0.00 0.00 0.00 0.00 0.00
0.13 0.13 0.08 0.03 0.02 0.02 0.02 0.02 0.02 0.03 0.04 0.03 0.03 0.04 0.04 0.05 0.05 0.02 0.01 0.01 0.01 0.00 0.00 0.00 0.00 0.00 0.00 0.00 0.00 0.00 0.00 0.00 0.00 0.00 0.00 0.00 0.00 0.00 0.00 0.00 0.00 0.00 0.00
0.19 0.18 0.14 0.08 0.04 0.03 0.02 0.02 0.02 0.02 0.03 0.04 0.04 0.04 0.03 0.04 0.04 0.01 0.01 0.01 0.01 0.01 0.00 0.00 0.00 0.00 0.00 0.00 0.00 0.00 0.00 0.00 0.00 0.00 0.00 0.00 0.00 0.00 0.00 0.00 0.00 0.00 0.00
0.26 0.23 0.20 0.16 0.09 0.05 0.03 0.02 0.02 0.03 0.03 0.04 0.04 0.03 0.02 0.04 0.03 0.01 0.01 0.01 0.01 0.00 0.00 0.00 0.00 0.00 0.00 0.00 0.00 0.00 0.00 0.00 0.00 0.00 0.00 0.00 0.00 0.00 0.00 0.00 0.00 0.00 0.00
0.29 0.27 0.23 0.20 0.13 0.08 0.05 0.04 0.04 0.04 0.04 0.04 0.04 0.03 0.03 0.03 0.02 0.01 0.01 0.01 0.01 0.00 0.00 0.00 0.00 0.00 0.00 0.00 0.00 0.00 0.00 0.00 0.00 0.00 0.00 0.00 0.00 0.00 0.00 0.00 0.00 0.00 0.00
0.37 0.33 0.26 0.23 0.19 0.13 0.08 0.05 0.05 0.05 0.04 0.04 0.04 0.03 0.02 0.03 0.02 0.02 0.01 0.01 0.00 0.00 0.00 0.00 0.00 0.00 0.00 0.00 0.00 0.00 0.00 0.00 0.00 0.00 0.00 0.00 0.00 0.00 0.00 0.00 0.00 0.00 0.00
0.43 0.44 0.33 0.28 0.24 0.19 0.12 0.07 0.05 0.05 0.04 0.04 0.04 0.03 0.02 0.02 0.02 0.01 0.01 0.01 0.00 0.00 0.00 0.00 0.00 0.00 0.00 0.00 0.00 0.00 0.00 0.00 0.00 0.00 0.00 0.00 0.00 0.00 0.00 0.00 0.00 0.00 0.00
0.46 0.53 0.45 0.37 0.31 0.24 0.18 0.12 0.07 0.05 0.04 0.03 0.03 0.02 0.01 0.01 0.01 0.01 0.01 0.01 0.00 0.00 0.00 0.00 0.00 0.00 0.00 0.00 0.00 0.00 0.00 0.00 0.00 0.00 0.00 0.00 0.00 0.00 0.00 0.00 0.00 0.00 0.01
0.52 0.61 0.59 0.45 0.37 0.29 0.23 0.17 0.11 0.07 0.05 0.04 0.03 0.01 0.01 0.01 0.01 0.01 0.01 0.01 0.00 0.00 0.00 0.00 0.00 0.00 0.00 0.00 0.00 0.00 0.00 0.00 0.00 0.00 0.00 0.00 0.00 0.00 0.00 0.00 0.00 0.01 0.01
0.55 0.63 0.64 0.55 0.43 0.34 0.27 0.22 0.18 0.12 0.07 0.05 0.04 0.02 0.01 0.01 0.00 0.01 0.01 0.01 0.00 0.00 0.00 0.00 0.00 0.00 0.00 0.00 0.00 0.01 0.00 0.00 0.00 0.00 0.00 0.00 0.00 0.00 0.00 0.00 0.00 0.01 0.01
0.52 0.61 0.61 0.59 0.53 0.41 0.33 0.27 0.24 0.19 0.12 0.08 0.06 0.04 0.01 0.00 0.00 0.00 0.00 0.00 0.00 0.00 0.00 0.00 0.00 0.00 0.01 0.01 0.01 0.01 0.00 0.00 0.00 0.00 0.00 0.00 0.00 0.00 0.00 0.00 0.00 0.00 0.01
0.46 0.57 0.61 0.59 0.60 0.51 0.39 0.30 0.26 0.23 0.17 0.12 0.08 0.06 0.03 0.01 0.01 0.01 0.00 0.00 0.01 0.01 0.00 0.00 0.01 0.01 0.01 0.01 0.00 0.00 0.00 0.00 0.00 0.00 0.00 0.00 0.00 0.00 0.00 0.00 0.00 0.00 0.00
0.39 0.50 0.55 0.54 0.58 0.57 0.49 0.36 0.29 0.24 0.20 0.15 0.11 0.07 0.04 0.03 0.02 0.02 0.01 0.01 0.02 0.01 0.00 0.00 0.01 0.00 0.00 0.00 0.00 0.00 0.00 0.00 0.00 0.00 0.00 0.00 0.00 0.00 0.00 0.00 0.00 0.00 0.00
0.35 0.48 0.52 0.47 0.48 0.50 0.48 0.40 0.31 0.26 0.21 0.18 0.14 0.11 0.07 0.05 0.03 0.03 0.02 0.01 0.01 0.01 0.01 0.01 0.01 0.01 0.01 0.01 0.01 0.01 0.01 0.00 0.00 0.00 0.00 0.00 0.00 0.00 0.00 0.00 0.00 0.00 0.00
0.35 0.42 0.50 0.45 0.42 0.40 0.39 0.36 0.34 0.32 0.24 0.22 0.20 0.13 0.08 0.05 0.04 0.03 0.03 0.03 0.03 0.02 0.02 0.01 0.01 0.01 0.01 0.02 0.02 0.02 0.01 0.01 0.01 0.01 0.01 0.01 0.01 0.01 0.00 0.00 0.00 0.00 0.00
0.34 0.38 0.43 0.45 0.41 0.40 0.38 0.34 0.31 0.33 0.29 0.23 0.23 0.18 0.10 0.07 0.05 0.04 0.04 0.05 0.05 0.05 0.04 0.03 0.03 0.03 0.03 0.03 0.03 0.03 0.03 0.03 0.03 0.02 0.02 0.01 0.01 0.00 0.00 0.00 0.00 0.00 0.00
0.28 0.36 0.40 0.41 0.37 0.35 0.36 0.36 0.33 0.29 0.29 0.22 0.19 0.20 0.17 0.13 0.09 0.07 0.06 0.07 0.07 0.06 0.05 0.05 0.05 0.05 0.05 0.05 0.05 0.05 0.05 0.05 0.04 0.03 0.02 0.02 0.01 0.01 0.00 0.00 0.00 0.00 0.00
0.19 0.28 0.34 0.36 0.35 0.31 0.29 0.29 0.30 0.29 0.29 0.28 0.21 0.18 0.16 0.13 0.11 0.09 0.08 0.07 0.07 0.07 0.07 0.07 0.07 0.07 0.08 0.08 0.09 0.09 0.09 0.08 0.07 0.06 0.05 0.04 0.03 0.01 0.00 0.00 0.00 0.00 0.00
0.14 0.21 0.26 0.28 0.30 0.27 0.25 0.26 0.26 0.26 0.27 0.27 0.24 0.19 0.16 0.14 0.11 0.09 0.08 0.08 0.08 0.09 0.09 0.09 0.08 0.09 0.11 0.11 0.11 0.11 0.10 0.10 0.09 0.08 0.07 0.05 0.04 0.02 0.01 0.00 0.00 0.00 0.00
MSLP
1005.66 1005.95 1006.45 1007.10 1007.82 1008.53 1009.19 1009.75 1010.23 1010.65 1011.06 1011.49 1011.96 1012.48 1013.03 1013.56 1014.06 1014.48 1014.83 1015.10 1015.32 1015.52 1015.72 1015.93 1016.16 1016.38 1016.58 1016.74 1016.86 1016.94 1017.00 1017.05 1017.13 1017.24 1017.38 1017.53 1017.68 1017.79 1017.85 1017.85 1017.80 1017.73 1017.67
1005.12 1005.54 1006.16 1006.92 1007.73 1008.51 1009.19 1009.76 1010.22 1010.61 1010.98 1011.40 1011.89 1012.44 1013.03 1013.63 1014.19 1014.67 1015.07 1015.38 1015.63 1015.86 1016.08 1016.30 1016.54 1016.78 1016.98 1017.14 1017.26 1017.33 1017.39 1017.45 1017.53 1017.67 1017.84 1018.02 1018.20 1018.33 1018.40 1018.40 1018.35 1018.28 1018.21
1004.51 1005.04 1005.79 1006.68 1007.60 1008.46 1009.19 1009.78 1010.24 1010.61 1010.96 1011.36 1011.83 1012.39 1013.01 1013.63 1014.23 1014.76 1015.20 1015.55 1015.84 1016.09 1016.34 1016.59 1016.85 1017.09 1017.31 1017.47 1017.58 1017.66 1017.71 1017.78 1017.89 1018.04 1018.24 1018.45 1018.65 1018.80 1018.89 1018.91 1018.87 1018.80 1018.75
1003.92 1004.54 1005.40 1006.40 1007.42 1008.37 1009.17 1009.80 1010.27 1010.64 1010.98 1011.36 1011.81 1012.35 1012.97 1013.60 1014.22 1014.78 1015.25 1015.64 1015.97 1016.26 1016.54 1016.82 1017.09 1017.35 1017.57 1017.74 1017.86 1017.93 1018.00 1018.08 1018.20 1018.37 1018.58 1018.81 1019.02 1019.19 1019.29 1019.33 1019.32 1019.28 1019.25
1003.46 1004.13 1005.04 1006.12 1007.22 1008.25 1009.12 1009.79 1010.30 1010.68 1011.02 1011.38 1011.82 1012.34 1012.95 1013.58 1014.21 1014.78 1015.28 1015.71 1016.08 1016.41 1016.72 1017.03 1017.32 1017.59 1017.82 1017.99 1018.12 1018.20 1018.28 1018.37 1018.49 1018.67 1018.89 1019.11 1019.33 1019.50 1019.62 1019.68 1019.69 1019.68 1019.67
1003.23 1003.88 1004.79 1005.89 1007.03 1008.10 1009.02 1009.74 1010.28 1010.70 1011.05 1011.42 1011.85 1012.37 1012.97 1013.60 1014.24 1014.83 1015.36 1015.83 1016.23 1016.60 1016.95 1017.28 1017.59 1017.86 1018.09 1018.27 1018.40 1018.49 1018.57 1018.67 1018.80 1018.97 1019.18 1019.40 1019.60 1019.77 1019.89 1019.96 1019.99 1020.01 1020.03
1003.27 1003.83 1004.68 1005.73 1006.85 1007.93 1008.86 1009.62 1010.21 1010.66 1011.05 1011.45 1011.90 1012.43 1013.03 1013.68 1014.34 1014.96 1015.53 1016.03 1016.48 1016.88 1017.25 1017.59 1017.91 1018.18 1018.41 1018.59 1018.72 1018.81 1018.90 1019.00 1019.13 1019.30 1019.49 1019.69 1019.88 1020.03 1020.14 1020.21 1020.26 1020.30 1020.35
1003.54 1003.98 1004.72 1005.67 1006.72 1007.75 1008.67 1009.44 1010.06 1010.56 1011.01 1011.45 1011.94 1012.51 1013.14 1013.82 1014.50 1015.16 1015.77 1016.32 1016.80 1017.24 1017.62 1017.97 1018.28 1018.55 1018.76 1018.92 1019.05 1019.15 1019.24 1019.35 1019.49 1019.66 1019.84 1020.02 1020.19 1020.32 1020.41 1020.48 1020.53 1020.58 1020.65
1003.99 1004.28 1004.88 1005.69 1006.62 1007.57 1008.45 1009.21 1009.85 1010.40 1010.90 1011.40 1011.95 1012.57 1013.25 1013.97 1014.69 1015.40 1016.05 1016.65 1017.17 1017.62 1018.03 1018.37 1018.66 1018.90 1019.09 1019.24 1019.35 1019.46 1019.57 1019.69 1019.84 1020.02 1020.21 1020.38 1020.53 1020.65 1020.73 1020.79 1020.84 1020.89 1020.96
1004.51 1004.67 1005.11 1005.78 1006.57 1007.41 1008.22 1008.95 1009.60 1010.18 1010.74 1011.30 1011.92 1012.59 1013.32 1014.09 1014.86 1015.61 1016.31 1016.94 1017.49 1017.97 1018.38 1018.71 1018.98 1019.19 1019.35 1019.47 1019.58 1019.69 1019.82 1019.97 1020.15 1020.35 1020.55 1020.74 1020.90 1021.02 1021.09 1021.15 1021.18 1021.23 1021.30
1005.00 1005.07 1005.38 1005.90 1006.56 1007.28 1008.00 1008.69 1009.33 1009.94 1010.54 1011.16 1011.84 1012.56 1013.34 1014.14 1014.96 1015.74 1016.48 1017.14 1017.72 1018.21 1018.61 1018.93 1019.17 1019.35 1019.48 1019.59 1019.69 1019.81 1019.96 1020.14 1020.36 1020.60 1020.84 1021.06 1021.24 1021.37 1021.46 1021.51 1021.55 1021.59 1021.64
1005.41 1005.41 1005.63 1006.04 1006.57 1007.18 1007.82 1008.45 1009.08 1009.70 1010.34 1011.00 1011.71 1012.47 1013.28 1014.11 1014.95 1015.77 1016.53 1017.22 1017.81 1018.31 1018.72 1019.02 1019.24 1019.39 1019.49 1019.58 1019.68 1019.80 1019.97 1020.20 1020.46 1020.74 1021.03 1021.29 1021.51 1021.66 1021.77 1021.84 1021.88 1021.92 1021.96
1005.68 1005.68 1005.84 1006.16 1006.59 1007.10 1007.67 1008.26 1008.87 1009.49 1010.15 1010.84 1011.57 1012.35 1013.17 1014.01 1014.86 1015.68 1016.45 1017.16 1017.77 1018.28 1018.68 1018.98 1019.19 1019.32 1019.41 1019.48 1019.57 1019.71 1019.90 1020.15 1020.45 1020.77 1021.10 1021.41 1021.66 1021.85 1021.99 1022.08 1022.13 1022.17 1022.21
1005.83 1005.84 1005.97 1006.23 1006.60 1007.04 1007.55 1008.11 1008.71 1009.33 1010.00 1010.70 1011.44 1012.22 1013.03 1013.86 1014.70 1015.52 1016.29 1017.00 1017.62 1018.15 1018.56 1018.86 1019.07 1019.20 1019.28 1019.35 1019.44 1019.58 1019.78 1020.04 1020.35 1020.71 1021.06 1021.39 1021.68 1021.90 1022.07 1022.18 1022.25 1022.30 1022.34
1005.84 1005.88 1006.01 1006.24 1006.56 1006.97 1007.45 1007.99 1008.59 1009.22 1009.89 1010.60 1011.34 1012.11 1012.91 1013.72 1014.53 1015.33 1016.09 1016.80 1017.44 1017.98 1018.41 1018.73 1018.96 1019.10 1019.19 1019.27 1019.35 1019.48 1019.68 1019.93 1020.24 1020.59 1020.94 1021.28 1021.57 1021.82 1022.00 1022.13 1022.22 1022.29 1022.34
1005.72 1005.79 1005.92 1006.15 1006.46 1006.85 1007.33 1007.88 1008.49 1009.15 1009.84 1010.56 1011.29 1012.05 1012.82 1013.59 1014.38 1015.15 1015.91 1016.61 1017.26 1017.82 1018.28 1018.64 1018.90 1019.07 1019.18 1019.27 1019.36 1019.49 1019.66 1019.89 1020.16 1020.47 1020.79 1021.10 1021.38 1021.62 1021.81 1021.96 1022.07 1022.16 1022.22
1005.49 1005.58 1005.72 1005.94 1006.26 1006.67 1007.17 1007.76 1008.41 1009.10 1009.82 1010.55 1011.29 1012.03 1012.77 1013.52 1014.27 1015.02 1015.75 1016.46 1017.12 1017.70 1018.20 1018.60 1018.91 1019.12 1019.28 1019.39 1019.49 1019.61 1019.76 1019.94 1020.16 1020.40 1020.66 1020.91 1021.16 1021.37 1021.56 1021.72 1021.84 1021.95 1022.04
1005.17 1005.25 1005.40 1005.63 1005.97 1006.42 1006.97 1007.61 1008.31 1009.05 1009.81 1010.56 1011.30 1012.03 1012.75 1013.47 1014.18 1014.91 1015.63 1016.33 1017.00 1017.61 1018.14 1018.59 1018.95 1019.22 1019.43 1019.58 1019.71 1019.82 1019.94 1020.08 1020.23 1020.41 1020.59 1020.77 1020.96 1021.14 1021.31 1021.47 1021.60 1021.73 1021.84
1004.78 1004.85 1004.99 1005.25 1005.62 1006.12 1006.73 1007.44 1008.21 1009.00 1009.80 1010.57 1011.32 1012.04 1012.73 1013.42 1014.11 1014.81 1015.51 1016.21 1016.88 1017.50 1018.07 1018.57 1018.98 1019.32 1019.58 1019.79 1019.95 1020.08 1020.19 1020.29 1020.39 1020.48 1020.59 1020.70 1020.83 1020.97 1021.12 1021.27 1021.42 1021.57 1021.69
1004.35 1004.41 1004.57 1004.85 1005.28 1005.84 1006.52 1007.29 1008.11 1008.96 1009.79 1010.58 1011.33 1012.03 1012.71 1013.37 1014.03 1014.70 1015.38 1016.05 1016.72 1017.36 1017.95 1018.48 1018.95 1019.34 1019.67 1019.94 1020.15 1020.31 1020.43 1020.52 1020.58 1020.62 1020.66 1020.72 1020.79 1020.90 1021.03 1021.18 1021.34 1021.50 1021.64
1003.95 1004.02 1004.20 1004.52 1005.00 1005.62 1006.36 1007.20 1008.07 1008.94 1009.79 1010.58 1011.32 1012.00 1012.65 1013.28 1013.92 1014.56 1015.21 1015.87 1016.52 1017.16 1017.76 1018.31 1018.82 1019.27 1019.66 1019.99 1020.26 1020.47 1020.62 1020.71 1020.76 1020.78 1020.78 1020.80 1020.84 1020.93 1021.05 1021.20 1021.38 1021.54 1021.69
1003.65 1003.74 1003.96 1004.34 1004.87 1005.54 1006.34 1007.20 1008.09 1008.98 1009.82 1010.59 1011.30 1011.96 1012.58 1013.19 1013.79 1014.41 1015.03 1015.67 1016.29 1016.91 1017.50 1018.07 1018.59 1019.08 1019.53 1019.92 1020.25 1020.52 1020.72 1020.84 1020.91 1020.93 1020.93 1020.94 1020.97 1021.05 1021.17 1021.33 1021.52 1021.70 1021.85
1003.51 1003.65 1003.92 1004.34 1004.92 1005.64 1006.46 1007.33 1008.22 1009.08 1009.88 1010.62 1011.29 1011.92 1012.52 1013.10 1013.68 1014.27 1014.87 1015.47 1016.07 1016.66 1017.23 1017.78 1018.31 1018.82 1019.30 1019.74 1020.14 1020.47 1020.72 1020.90 1021.00 1021.05 1021.07 1021.09 1021.13 1021.22 1021.36 1021.53 1021.73 1021.92 1022.08
1003.59 1003.77 1004.09 1004.56 1005.17 1005.90 1006.72 1007.57 1008.42 1009.23 1009.99 1010.67 1011.31 1011.90 1012.47 1013.03 1013.60 1014.18 1014.76 1015.34 1015.90 1016.45 1016.99 1017.51 1018.03 1018.54 1019.03 1019.51 1019.95 1020.34 1020.65 1020.88 1021.03 1021.12 1021.17 1021.22 1021.29 1021.40 1021.56 1021.76 1021.97 1022.17 1022.33
1003.86 1004.10 1004.45 1004.94 1005.56 1006.28 1007.07 1007.87 1008.66 1009.41 1010.10 1010.74 1011.33 1011.90 1012.46 1013.01 1013.58 1014.15 1014.72 1015.27 1015.81 1016.32 1016.81 1017.29 1017.78 1018.27 1018.77 1019.27 1019.73 1020.16 1020.52 1020.80 1021.00 1021.14 1021.23 1021.32 1021.42 1021.56 1021.75 1021.97 1022.20 1022.41 1022.58
1004.32 1004.57 1004.93 1005.42 1006.02 1006.70 1007.42 1008.17 1008.89 1009.57 1010.20 1010.78 1011.34 1011.90 1012.45 1013.02 1013.59 1014.17 1014.73 1015.27 1015.77 1016.24 1016.69 1017.14 1017.58 1018.05 1018.53 1019.03 1019.52 1019.97 1020.36 1020.68 1020.93 1021.11 1021.24 1021.36 1021.50 1021.67 1021.89 1022.13 1022.38 1022.61 1022.78
Thickness
5784 5783 5778 5776 5774 5773 5771 5770 5768 5766 5763 5761 5759 5757 5755 5753 5752 5750 5748 5747 5745 5743 5742 5740 5738 5737 5736 5735 5734 5733 5732 5732 5731 5730 5730 5730 5729 5729 5728 5727 5726 5724 5723
5785 5780 5774 5772 5770 5769 5768 5766 5765 5763 5760 5758 5757 5755 5753 5751 5749 5747 5746 5744 5742 5740 5739 5737 5736 5734 5733 5731 5730 5730 5729 5729 5728 5727 5727 5726 5726 5725 5724 5723 5722 5721 5720
5779 5775 5770 5768 5766 5765 5764 5763 5761 5759 5757 5755 5754 5752 5750 5748 5746 5745 5743 5741 5739 5738 5736 5734 5732 5731 5729 5728 5727 5726 5726 5726 5725 5725 5724 5723 5722 5721 5720 5719 5718 5717 5716
5772 5769 5766 5763 5762 5760 5760 5759 5757 5756 5754 5752 5750 5749 5747 5745 5743 5742 5740 5738 5736 5734 5733 5731 5729 5727 5726 5724 5724 5724 5724 5724 5723 5723 5721 5720 5719 5718 5717 5716 5715 5713 5712
5763 5762 5760 5758 5757 5756 5755 5754 5753 5752 5750 5749 5747 5745 5744 5742 5740 5738 5737 5735 5733 5731 5729 5727 5725 5724 5722 5721 5721 5721 5721 5721 5721 5720 5718 5716 5715 5714 5713 5712 5711 5709 5708
5755 5755 5753 5752 5751 5750 5750 5750 5749 5748 5747 5745 5743 5742 5740 5738 5737 5735 5733 5731 5729 5727 5725 5724 5722 5720 5719 5718 5718 5718 5718 5718 5718 5717 5714 5712 5711 5710 5709 5708 5707 5705 5704
5746 5747 5745 5745 5745 5745 5745 5745 5744 5744 5742 5741 5740 5738 5737 5735 5733 5731 5729 5727 5725 5723 5722 5720 5719 5717 5716 5715 5715 5715 5715 5715 5715 5713 5710 5708 5707 5706 5705 5704 5703 5702 5700
5738 5739 5738 5738 5739 5739 5739 5739 5739 5739 5738 5737 5736 5734 5733 5731 5729 5727 5724 5723 5721 5720 5718 5716 5715 5714 5713 5712 5712 5712 5712 5712 5711 5709 5707 5705 5704 5703 5701 5700 5699 5698 5696
5730 5731 5730 5731 5732 5732 5733 5733 5734 5733 5733 5732 5731 5730 5728 5726 5725 5722 5720 5719 5717 5716 5714 5713 5712 5710 5709 5708 5708 5709 5709 5709 5708 5706 5704 5702 5700 5699 5698 5696 5695 5694 5692
5721 5723 5723 5724 5725 5726 5726 5727 5727 5728 5727 5727 5726 5725 5723 5722 5720 5718 5716 5714 5713 5712 5710 5709 5708 5707 5706 5705 5705 5706 5706 5706 5704 5702 5700 5698 5697 5695 5694 5692 5691 5690 5688
5711 5714 5716 5718 5719 5720 5721 5721 5721 5721 5722 5721 5720 5719 5718 5716 5715 5713 5712 5710 5709 5707 5706 5705 5704 5703 5702 5702 5702 5702 5703 5702 5701 5699 5696 5695 5693 5692 5690 5689 5687 5686 5684
5699 5705 5710 5712 5714 5716 5716 5715 5715 5716 5715 5716 5715 5714 5714 5713 5711 5710 5708 5706 5704 5703 5702 5701 5700 5699 5699 5699 5699 5699 5700 5700 5698 5695 5693 5691 5690 5688 5686 5685 5683 5682 5680
5692 5698 5703 5707 5709 5710 5711 5711 5711 5711 5711 5712 5711 5711 5711 5709 5708 5706 5703 5701 5700 5699 5698 5697 5696 5696 5696 5696 5696 5697 5697 5697 5695 5692 5690 5688 5686 5684 5683 5681 5680 5678 5676
5681 5689 5694 5699 5701 5703 5705 5706 5706 5707 5707 5708 5708 5708 5708 5707 5705 5702 5701 5698 5697 5696 5695 5694 5694 5694 5694 5694 5694 5695 5695 5694 5692 5689 5686 5685 5683 5681 5679 5678 5676 5674 5672
5671 5678 5684 5691 5694 5696 5697 5699 5700 5702 5703 5704 5704 5705 5705 5704 5702 5700 5698 5696 5695 5694 5693 5692 5692 5693 5693 5692 5692 5692 5691 5690 5688 5686 5683 5681 5679 5678 5676 5674 5672 5671 5668
5662 5667 5672 5679 5685 5689 5690 5691 5695 5696 5698 5699 5700 5701 5700 5700 5699 5697 5696 5694 5693 5692 5691 5690 5690 5690 5690 5689 5688 5688 5687 5686 5684 5682 5680 5678 5676 5674 5672 5670 5669 5667 5665
5653 5658 5662 5668 5674 5679 5681 5684 5687 5689 5692 5693 5694 5695 5696 5696 5695 5694 5693 5691 5691 5690 5688 5688 5687 5687 5686 5685 5684 5683 5682 5681 5680 5678 5676 5674 5672 5670 5668 5666 5664 5662 5660
5645 5650 5654 5659 5664 5669 5672 5676 5679 5682 5684 5686 5688 5690 5691 5691 5691 5690 5689 5688 5688 5687 5685 5684 5683 5682 5680 5679 5678 5678 5677 5676 5675 5674 5672 5671 5669 5666 5664 5662 5659 5657 5655
5636 5642 5647 5650 5654 5659 5663 5668 5672 5675 5678 5680 5681 5683 5685 5686 5686 5685 5685 5684 5684 5682 5681 5680 5679 5677 5674 5673 5673 5672 5672 5671 5670 5669 5667 5666 5664 5662 5660 5657 5655 5652 5650
5628 5634 5640 5645 5647 5650 5655 5659 5662 5667 5670 5673 5675 5677 5679 5681 5681 5680 5680 5680 5679 5677 5675 5674 5672 5672 5670 5669 5668 5666 5666 5666 5665 5663 5662 5661 5659 5657 5655 5653 5650 5647 5644
5619 5625 5632 5637 5640 5644 5647 5650 5652 5657 5662 5666 5669 5671 5673 5674 5675 5675 5675 5675 5675 5672 5670 5669 5667 5665 5664 5664 5660 5657 5658 5659 5659 5658 5656 5655 5653 5652 5650 5647 5644 5642 5639
5614 5620 5625 5631 5635 5639 5643 5646 5649 5652 5657 5661 5662 5664 5666 5668 5669 5670 5670 5670 5669 5667 5665 5664 5662 5659 5658 5658 5654 5649 5646 5647 5650 5652 5650 5648 5646 5645 5643 5641 5639 5636 5633
5609 5615 5620 5625 5628 5634 5638 5641 5642 5644 5648 5650 5654 5657 5660 5663 5664 5665 5665 5664 5664 5662 5660 5659 5658 5655 5652 5652 5651 5647 5642 5640 5642 5642 5642 5641 5640 5638 5636 5634 5632 5630 5627
5604 5610 5615 5619 5623 5628 5631 5634 5636 5637 5641 5646 5650 5652 5654 5656 5658 5659 5659 5659 5658 5657 5656 5655 5654 5651 5648 5646 5645 5645 5644 5642 5637 5633 5633 5634 5633 5631 5630 5628 5625 5623 5620
5599 5603 5608 5613 5617 5621 5625 5628 5631 5633 5636 5640 5643 5645 5646 5649 5651 5653 5653 5653 5652 5651 5650 5649 5648 5647 5645 5642 5640 5639 5637 5636 5634 5629 5626 5624 5623 5623 5622 5621 5618 5615 5612
5593 5596 5601 5606 5610 5614 5618 5622 5625 5627 5630 5633 5636 5638 5640 5641 5644 5645 5646 5646 5646 5645 5644 5643 5643 5642 5640 5638 5637 5635 5632 5630 5627 5625 5622 5619 5616 5615 5614 5612 5610 5607 5604